Location: Braunsdorf
(50.7357°N, 11.9136°E)
Time: 15:41:11
(UTC+00:00)

SKYMED 3 - Pass Details

Date: 17 February 2020
Orbit: 621 x 623 km, 97.9° (Epoch: 07 April)

Event Time Altitude Azimuth Distance (km) Brightness Sun altitude
Rises 04:23:22 0° 170° (S) 2,893 8.1 -19.4°
Reaches altitude 10° 04:25:33 10° 172° (S) 1,992 7.2 -19.0°
Maximum altitude 04:29:53 72° 257° (WSW) 660 4.4 -18.3°
Drops below altitude 10° 04:34:15 10° 343° (NNW) 2,009 7.0 -17.6°
Sets 04:36:28 0° 345° (NNW) 2,920 7.9 -17.3°
